Delray Beach, FL (33444)

12:14 PM EDT on July 28, 2016 (GMT -0400)
Lake Ida - Garden House | | Change Station

Elev 0 ft 26.48 °N, 80.07 °W | Updated 4 minutes ago

Scattered Clouds
Scattered Clouds
97.5 °F
Feels Like 116 °F
N
1.7
Wind Variable Wind from SSE

Today
High -- | Low -- °F
--% Chance of Precip.
Yesterday
High -- | Low -- °F
Precip. -- in
Pressure 30.08 in
Visibility 10.0 miles
Clouds Few 2800 ft
Few 6000 ft
Few 15000 ft
Scattered Clouds 25000 ft
Heat Index 116 °F
Dew Point 79 °F
Humidity 55%
Rainfall 0.00 in
Snow Depth Not available.
6:43 AM 8:09 PM
Waning Crescent, 31% visible
METAR KPMP 281553Z 10009KT 10SM FEW028 FEW060 FEW150 SCT250 32/24 A3008 RMK AO2 SLP186 T03220239
Pressure 30.08 in
Visibility 10.0 miles
Clouds Few 2800 ft
Few 6000 ft
Few 15000 ft
Scattered Clouds 25000 ft
Heat Index 116 °F
Dew Point 79 °F
Humidity 55%
Rainfall 0.00 in
Snow Depth Not available.
6:43 AM 8:09 PM
Waning Crescent, 31% visible
METAR KPMP 281553Z 10009KT 10SM FEW028 FEW060 FEW150 SCT250 32/24 A3008 RMK AO2 SLP186 T03220239

10-Day Weather Forecast

Almanac

Astronomy

Jul. 28, 2016 Rise Set
Actual Time
Civil Twilight
Nautical Twilight
Astronomical Twilight
Moon
Length of Visible Light
Length of Day
Tomorrow will be .
, % of the Moon is Illuminated

Today's Extremes

State Highs State Lows

Community

WunderPhotos

Upload Photos

1,928,146 photos uploaded!

WunderBlog® & News

Nearby

Air Quality

  Air Quality AQ Index Pollutant
Not available.

Snow Depth

Station Depth Elevation

Earthquake Activity

City Distance Mag. Time & Date
Minimum magnitude displayed is 2.5.

Coastal Water Temperatures

Place Temperature

Stations

Nearby Weather Stations

Station Location Temp. Windchill Dew Point Humidity Wind Precip. Elev Updated Type
                   

Watches & Warnings

There are currently no watches in effect.